Location: Brno
(49.2000°N, 16.6330°E)
Time: 06:00:32
(UTC+02:00)

CARTOSAT-1 - Visible Passes

Search period start: 31 May 2016 00:00
Search period end: 10 June 2016 00:00
Orbit: 617 x 619 km, 97.9° (Epoch: 30 May)

Date Brightness Start Highest point End Pass type
(mag) Time Alt. Az. Time Alt. Az. Time Alt. Az.
31 May 3.5 22:33:29 18° SSE 22:36:39 79° ENE 22:41:01 10° NNW visible
01 Jun 6.0 00:11:25 10° WSW 00:13:18 13° W 00:15:12 10° WNW visible
01 Jun 3.7 22:50:25 19° S 22:53:27 72° WSW 22:57:47 10° NNW visible
02 Jun 5.2 21:31:11 10° ESE 21:34:29 22° ENE 21:37:47 10° NNE visible
02 Jun 4.2 23:07:21 18° SSW 23:10:16 48° W 23:14:29 10° NNW visible
03 Jun 4.8 21:47:22 10° SE 21:51:08 29° ENE 21:54:53 10° N visible
03 Jun 4.8 23:24:17 16° SSW 23:27:08 33° W 23:31:06 10° NNW visible
04 Jun 4.3 22:04:05 12° SE 22:07:48 41° ENE 22:11:54 10° N visible
04 Jun 5.4 23:41:13 13° SW 23:44:03 23° W 23:47:33 10° NW visible
05 Jun 3.8 22:21:01 15° SSE 22:24:31 60° ENE 22:28:48 10° N visible
05 Jun 5.8 23:58:14 10° SW 00:01:00 16° W 00:03:46 10° NW visible
06 Jun 3.5 22:37:57 17° SSE 22:41:17 87° ENE 22:45:38 10° NNW visible
07 Jun 6.1 00:16:38 10° WSW 00:17:59 11° W 00:19:21 10° WNW visible
07 Jun 3.8 22:54:54 18° S 22:58:04 64° WSW 23:02:24 10° NNW visible
08 Jun 5.1 21:35:38 10° ESE 21:39:04 23° ENE 21:42:30 10° N visible
08 Jun 4.4 23:11:50 17° SSW 23:14:55 43° W 23:19:04 10° NNW visible
09 Jun 4.6 21:51:52 10° SE 21:55:43 32° ENE 21:59:34 10° N visible
09 Jun 5.0 23:28:46 14° SSW 23:31:47 30° W 23:35:38 10° NNW visible
